DW8633 Weather Reports


time (UTC)temp
C
wind
direction
speed
KPH
gust
KPH
rain 1hr
cm
rain 24hr
cm
rain mn
cm
humidity
%
barometer
mb
20260906214604 31 61 8.0 16.1 0.00 0.00 0.00 49 929.4
20260906214058 31 322 11.3 22.5 0.00 0.00 0.00 50 929.5
20260906213558 31 351 9.7 22.5 0.00 0.00 0.00 50 929.4
20260906212555 30 30 9.7 17.7 0.00 0.00 0.00 52 929.6
20260906212054 30 5 4.8 20.9 0.00 0.00 0.00 52 929.6
20260906211558 30 342 4.8 17.7 0.00 0.00 0.00 52 929.6
20260906211052 30 42 4.8 22.5 0.00 0.00 0.00 53 929.9
20260906210551 30 360 12.9 22.5 0.00 0.00 0.00 53 929.9
20260906205551 30 5 6.4 17.7 0.00 0.00 0.00 55 930.1
20260906205047 29 5 8.0 16.1 0.00 0.00 0.00 56 930.3
20260906204547 29 360 6.4 16.1 0.00 0.00 0.00 57 930.3
20260906204045 29 325 8.0 17.7 0.00 0.00 0.00 57 930.4
20260906203544 28 298 9.7 17.7 0.00 0.00 0.00 59 930.4
20260906202542 28 340 9.7 19.3 0.00 0.00 0.00 60 930.6
20260906202045 28 298 8.0 19.3 0.00 0.00 0.00 61 930.7
20260906201541 28 317 11.3 19.3 0.00 0.00 0.00 61 930.7
20260906201040 28 339 9.7 16.1 0.00 0.00 0.00 62 930.8
20260906200540 28 302 11.3 19.3 0.00 0.00 0.00 62 930.9
20260906200048 28 249 8.0 19.3 0.00 0.00 0.00 63 930.9
20260906195539 27 288 9.7 17.7 0.00 0.00 0.00 64 930.8
20260906195038 27 265 9.7 17.7 0.00 0.00 0.00 64 930.9
20260906194539 27 13 6.4 14.5 0.00 0.00 0.00 64 931.0
20260906194036 27 339 3.2 12.9 0.00 0.00 0.00 65 931.1
20260906193534 27 326 3.2 12.9 0.00 0.00 0.00 66 931.2
20260906193134 26 345 8.0 12.9 0.00 0.00 0.00 67 931.3
20260906192534 26 330 6.4 12.9 0.00 0.00 0.00 67 931.2
20260906192033 27 348 6.4 12.9 0.00 0.00 0.00 67 931.4
20260906191541 26 178 3.2 16.1 0.00 0.00 0.00 68 931.4
20260906191030 26 254 3.2 16.1 0.00 0.00 0.00 69 931.4
20260906190528 26 276 3.2 14.5 0.00 0.00 0.00 70 931.5
20260906190038 26 290 8.0 14.5 0.00 0.00 0.00 72 931.5
20260906185526 25 311 3.2 12.9 0.00 0.00 0.00 73 931.7
20260906185025 25 355 3.2 14.5 0.00 0.00 0.00 75 931.8
20260906184525 25 322 8.0 14.5 0.00 0.00 0.00 75 931.8
20260906184024 25 273 9.7 14.5 0.00 0.00 0.00 74 931.9
20260906183527 25 343 6.4 16.1 0.00 0.00 0.00 74 932.0
20260906183124 24 322 9.7 14.5 0.00 0.00 0.00 77 932.0
20260906182527 24 267 9.7 14.5 0.00 0.00 0.00 77 932.2
20260906182022 24 269 6.4 14.5 0.00 0.00 0.00 76 932.3
20260906181532 24 258 6.4 12.9 0.00 0.00 0.00 77 932.3
20260906181021 23 313 1.6 14.5 0.00 0.00 0.00 78 932.3
20260906180519 23 288 8.0 14.5 0.00 0.00 0.00 79 932.3
20260906180018 23 274 4.8 14.5 0.00 0.00 0.00 79 932.2
20260906175517 23 271 6.4 12.9 0.00 0.00 0.00 80 932.4
20260906175018 22 341 6.4 12.9 0.00 0.00 0.00 82 932.4
20260906174515 22 294 6.4 16.1 0.00 0.00 0.00 82 932.5
20260906174015 22 290 8.0 16.1 0.00 0.00 0.00 82 932.5
20260906173513 22 297 6.4 11.3 0.00 0.00 0.00 83 932.6
20260906173114 22 5 8.0 12.9 0.00 0.00 0.00 84 932.6
20260906172513 22 360 9.7 12.9 0.00 0.00 0.00 84 932.5
20260906172015 22 269 6.4 14.5 0.00 0.00 0.00 84 932.4
20260906171513 22 293 9.7 19.3 0.00 0.00 0.00 86 932.3
20260906171016 21 306 11.3 19.3 0.00 0.00 0.00 87 932.4
20260906170510 21 360 6.4 12.9 0.00 0.00 0.00 89 932.7
20260906170011 21 360 3.2 9.7 0.00 0.00 0.00 89 932.5
20260906165510 21 360 1.6 8.0 0.00 0.00 0.00 90 932.6
20260906165009 20 360 0.0 12.9 0.00 0.00 0.00 91 932.5
20260906164511 20 360 6.4 12.9 0.00 0.00 0.00 91 932.3
20260906164010 20 360 3.2 16.1 0.00 0.00 0.00 91 932.4
20260906163510 20 360 8.0 16.1 0.00 0.00 0.00 92 932.2
20260906162510 20 360 9.7 16.1 0.00 0.00 0.00 93 931.9
20260906162010 20 360 4.8 16.1 0.00 0.00 0.00 93 932.4
20260906161510 20 360 8.0 16.1 0.00 0.00 0.00 93 932.2
20260906161009 19 360 6.4 14.5 0.00 0.00 0.00 94 932.2
20260906160509 19 360 8.0 14.5 0.00 0.00 0.00 94 932.1
20260906160027 19 360 8.0 11.3 0.00 0.00 0.00 94 932.2
20260906155509 19 360 6.4 9.7 0.00 0.00 0.00 94 932.3
20260906155012 19 360 6.4 9.7 0.00 0.00 0.00 94 932.4
20260906154508 19 360 6.4 11.3 0.00 0.00 0.00 94 932.1
20260906154009 19 360 4.8 16.1 0.00 0.00 0.00 94 932.0
20260906153511 19 360 11.3 16.1 0.00 0.00 0.00 94 932.0
20260906153108 19 360 6.4 14.5 0.00 0.00 0.00 94 931.9
20260906152510 19 360 8.0 14.5 0.00 0.00 0.00 94 931.6
20260906152008 19 360 8.0 12.9 0.00 0.00 0.00 94 931.5
20260906151506 19 360 4.8 14.5 0.00 0.00 0.00 94 932.0
20260906151005 19 360 8.0 16.1 0.00 0.00 0.00 94 932.4
20260906150505 19 360 11.3 16.1 0.00 0.00 0.00 94 932.4
20260906150012 19 360 4.8 14.5 0.00 0.00 0.00 94 932.5
20260906145504 19 360 6.4 16.1 0.00 0.00 0.00 93 931.8
20260906145005 19 360 8.0 16.1 0.00 0.00 0.00 93 931.7
20260906144507 19 360 6.4 16.1 0.00 0.00 0.00 94 931.9
20260906144008 19 360 9.7 16.1 0.00 0.00 0.00 94 932.3
20260906143505 19 360 4.8 17.7 0.00 0.00 0.00 95 932.3
20260906142509 18 360 9.7 16.1 0.00 0.00 0.00 95 932.5
20260906142004 18 360 8.0 19.3 0.00 0.00 0.00 95 932.2
20260906141504 18 360 12.9 19.3 0.00 0.00 0.00 94 931.9
20260906141005 18 360 12.9 20.9 0.00 0.00 0.00 94 932.0
20260906140509 18 360 14.5 20.9 0.00 0.00 0.00 94 932.3
20260906140008 19 360 12.9 22.5 0.00 0.00 0.00 94 932.8
20260906135504 19 360 14.5 24.1 0.00 0.00 0.00 95 932.7
20260906135004 19 360 14.5 24.1 0.00 0.00 0.00 95 932.4
20260906134504 19 360 14.5 20.9 0.00 0.00 0.00 96 931.7
20260906134004 18 360 12.9 20.9 0.00 0.00 0.00 95 931.5
20260906133502 18 360 12.9 19.3 0.00 0.00 0.00 95 931.6
20260906132600 18 360 8.0 11.3 0.00 0.00 0.00 95 932.1
20260906132103 18 61 6.4 11.3 0.00 0.00 0.00 95 932.4
20260906132001 18 57 6.4 14.5 0.00 0.00 0.00 95 932.4
20260906131605 18 360 3.2 16.1 0.00 0.00 0.00 95 932.6
20260906131100 18 360 9.7 20.9 0.00 0.00 0.00 95 932.7
20260906130601 18 360 12.9 22.5 0.00 0.00 0.00 95 932.6
20260906130100 18 360 17.7 29.0 0.00 0.00 0.00 95 932.4
20260906125600 18 360 19.3 29.0 0.00 0.00 0.00 95 932.6
20260906125102 18 360 12.9 19.3 0.00 0.00 0.00 95 933.0
20260906124601 18 360 11.3 22.5 0.00 0.00 0.00 95 933.4
20260906124058 18 360 14.5 20.9 0.00 0.00 0.00 95 933.2
20260906123558 18 360 14.5 20.9 0.00 0.00 0.00 95 933.1
20260906123059 18 360 11.3 17.7 0.00 0.00 0.00 95 933.0
20260906122556 18 360 11.3 14.5 0.00 0.00 0.00 95 933.1
20260906122057 18 360 9.7 14.5 0.00 0.00 0.00 95 932.8
20260906121557 18 360 6.4 12.9 0.00 0.00 0.00 95 932.7
20260906121056 18 360 8.0 12.9 0.00 0.00 0.00 95 932.6
20260906120558 18 360 3.2 9.7 0.00 0.00 0.00 95 932.8
20260906120101 18 360 4.8 8.0 0.00 0.00 0.00 95 932.8
20260906115556 18 360 1.6 8.0 0.00 0.00 0.00 95 932.7
20260906115057 18 360 4.8 8.0 0.00 0.00 0.00 95 932.8
20260906114556 18 360 1.6 3.2 0.00 0.00 0.00 95 932.7
20260906114056 18 360 0.0 6.4 0.00 0.00 0.00 94 932.8
20260906113555 18 360 0.0 3.2 0.00 0.00 0.00 94 932.8
20260906113056 18 360 0.0 3.2 0.00 0.00 0.00 94 933.0
20260906112555 18 360 0.0 3.2 0.00 0.00 0.00 94 933.3
20260906112054 18 360 0.0 3.2 0.00 0.00 0.00 94 933.1
20260906111554 18 360 0.0 6.4 0.00 0.00 0.00 94 933.0
20260906111055 18 360 1.6 4.8 0.00 0.00 0.00 94 932.8
20260906110552 18 360 1.6 4.8 0.00 0.00 0.00 94 932.8
20260906110052 17 360 0.0 3.2 0.00 0.00 0.00 93 932.8
20260906105551 17 360 1.6 3.2 0.00 0.00 0.00 93 932.7
20260906105050 17 360 0.0 3.2 0.00 0.00 0.00 93 932.6
20260906104550 17 360 0.0 6.4 0.00 0.00 0.00 92 932.6
20260906104052 18 360 1.6 4.8 0.00 0.00 0.00 93 932.5
20260906103548 18 360 0.0 1.6 0.00 0.00 0.00 93 932.6
20260906103148 18 360 0.0 3.2 0.00 0.00 0.00 93 932.4
20260906102548 18 360 0.0 3.2 0.00 0.00 0.00 93 932.4
20260906102047 19 360 0.0 8.0 0.00 0.00 0.00 93 932.5
20260906101547 19 360 3.2 9.7 0.00 0.00 0.00 93 932.3
20260906101046 19 360 6.4 9.7 0.00 0.00 0.00 93 932.3
20260906100546 19 360 4.8 9.7 0.00 0.00 0.00 93 932.0
20260906100046 19 360 0.0 6.4 0.00 0.00 0.00 92 932.1
20260906095545 19 360 0.0 6.4 0.00 0.00 0.00 93 932.2
20260906095045 19 360 0.0 9.7 0.00 0.00 0.00 92 932.1
20260906094544 19 360 6.4 11.3 0.00 0.00 0.00 92 932.2
20260906094043 19 360 6.4 11.3 0.00 0.00 0.00 92 932.1
20260906093543 19 360 6.4 11.3 0.00 0.00 0.00 92 932.0
20260906093143 19 360 3.2 12.9 0.00 0.00 0.00 92 932.0
20260906092543 19 360 4.8 12.9 0.00 0.00 0.00 92 932.1
20260906092042 20 360 6.4 12.9 0.00 0.00 0.00 92 932.0
20260906091541 20 360 8.0 12.9 0.00 0.00 0.00 92 932.1
20260906091043 20 360 8.0 12.9 0.00 0.00 0.00 91 932.2
20260906090540 20 360 8.0 12.9 0.00 0.00 0.00 92 932.3
20260906090040 20 360 6.4 11.3 0.00 0.00 0.00 91 932.3
20260906085540 20 360 3.2 11.3 0.00 0.00 0.00 91 932.2
20260906085038 20 360 3.2 12.9 0.00 0.00 0.00 91 932.1
20260906084538 20 360 6.4 12.9 0.00 0.00 0.00 91 932.1
20260906084038 20 360 8.0 12.9 0.00 0.00 0.00 91 932.2
20260906083537 20 360 8.0 12.9 0.00 0.00 0.00 91 932.2
20260906083137 20 360 6.4 14.5 0.00 0.00 0.00 91 932.3
20260906082536 20 360 6.4 14.5 0.00 0.00 0.00 91 932.2
20260906082036 20 360 8.0 14.5 0.00 0.00 0.00 90 932.3
20260906081538 20 360 4.8 9.7 0.00 0.00 0.00 90 932.2
20260906081036 20 360 4.8 9.7 0.00 0.00 0.00 89 932.1
20260906080534 20 360 3.2 9.7 0.00 0.00 0.00 89 932.3
20260906080034 20 360 4.8 9.7 0.00 0.00 0.00 89 932.4
20260906075533 20 360 0.0 9.7 0.00 0.00 0.00 88 932.4
20260906075030 20 360 3.2 9.7 0.00 0.00 0.00 88 932.5
20260906074533 20 360 1.6 9.7 0.00 0.00 0.00 88 932.6
20260906074033 21 360 1.6 14.5 0.00 0.00 0.00 88 932.6
20260906073527 21 360 4.8 14.5 0.00 0.00 0.00 88 932.6
20260906073127 21 360 9.7 22.5 0.00 0.00 0.00 87 932.6
20260906072529 21 360 8.0 22.5 0.00 0.00 0.00 87 932.6
20260906072027 21 360 9.7 22.5 0.00 0.00 0.00 87 932.6
20260906071527 21 360 11.3 20.9 0.00 0.00 0.00 87 932.6
20260906071028 21 360 9.7 20.9 0.00 0.00 0.00 87 932.6
20260906070528 21 360 14.5 22.5 0.00 0.00 0.00 87 932.6
20260906070025 21 360 11.3 22.5 0.00 0.00 0.00 87 932.7
20260906065524 21 360 8.0 16.1 0.00 0.00 0.00 87 932.7
20260906065024 21 360 9.7 20.9 0.00 0.00 0.00 87 932.7
20260906064528 21 360 8.0 20.9 0.00 0.00 0.00 86 932.5
20260906064021 21 360 6.4 12.9 0.00 0.00 0.00 87 932.7
20260906063520 21 360 8.0 12.9 0.00 0.00 0.00 87 932.7
20260906063119 21 360 3.2 9.7 0.00 0.00 0.00 86 932.7
20260906062519 21 360 3.2 8.0 0.00 0.00 0.00 87 932.8
20260906062019 21 360 1.6 8.0 0.00 0.00 0.00 86 932.8
20260906061519 21 360 3.2 8.0 0.00 0.00 0.00 86 932.8
20260906061019 21 360 3.2 11.3 0.00 0.00 0.00 86 932.7
20260906060518 21 360 3.2 11.3 0.00 0.00 0.00 86 932.7
20260906060018 21 360 4.8 11.3 0.00 0.00 0.00 85 932.6
20260906055518 21 360 6.4 17.7 0.00 0.00 0.00 86 932.7
20260906055017 21 360 9.7 17.7 0.00 0.00 0.00 86 932.7
20260906054517 21 360 4.8 11.3 0.00 0.00 0.00 86 932.7
20260906054016 21 360 6.4 14.5 0.00 0.00 0.00 86 932.6
20260906053516 21 360 6.4 14.5 0.00 0.00 0.00 86 932.7
20260906053021 21 360 1.6 14.5 0.00 0.00 0.00 86 932.6
20260906052515 21 360 0.0 14.5 0.00 0.00 0.00 86 932.6
20260906052015 21 360 8.0 14.5 0.00 0.00 0.00 86 932.5
20260906051515 21 360 6.4 11.3 0.00 0.00 0.00 86 932.5
20260906051015 21 360 4.8 14.5 0.00 0.00 0.00 86 932.5
20260906050516 21 360 8.0 14.5 0.00 0.00 0.00 85 932.6
20260906050043 21 360 6.4 12.9 0.00 0.00 0.00 85 932.5
20260906045515 21 360 4.8 12.9 0.00 0.00 0.00 85 932.5
20260906045014 21 360 4.8 11.3 0.00 0.00 0.00 85 932.5
20260906044514 21 360 4.8 11.3 0.00 0.00 0.00 85 932.6
20260906044014 21 360 4.8 11.3 0.00 0.00 0.00 84 932.6
20260906043513 21 360 6.4 14.5 0.00 0.00 0.00 84 932.6
20260906043114 21 360 6.4 9.7 0.00 0.00 0.00 84 932.7
20260906042514 21 360 4.8 11.3 0.00 0.00 0.00 83 932.9
20260906042014 21 360 6.4 11.3 0.00 0.00 0.00 83 932.8
20260906041516 21 360 6.4 14.5 0.00 0.00 0.00 83 932.8
20260906041014 21 360 8.0 16.1 0.00 0.00 0.00 83 932.8
20260906040513 21 360 9.7 16.1 0.00 0.00 0.00 82 932.8
20260906040013 21 360 9.7 16.1 0.00 0.00 0.00 82 932.8
20260906035512 22 360 9.7 16.1 0.00 0.00 0.00 82 932.9
20260906035012 22 360 9.7 16.1 0.00 0.00 0.00 81 932.8
20260906034514 22 360 11.3 16.1 0.00 0.00 0.00 81 932.8
20260906034014 22 360 9.7 14.5 0.00 0.00 0.00 81 932.8
20260906033512 22 360 11.3 19.3 0.00 0.00 0.00 82 932.8
20260906033112 21 360 8.0 12.9 0.00 0.00 0.00 82 932.8
20260906032511 21 360 8.0 12.9 0.00 0.00 0.00 81 932.9
20260906032013 21 360 3.2 9.7 0.00 0.00 0.00 81 932.8
20260906031514 21 360 3.2 8.0 0.00 0.00 0.00 81 933.0
20260906031011 21 360 1.6 9.7 0.00 0.00 0.00 81 933.0
20260906030514 21 360 4.8 9.7 0.00 0.00 0.00 81 933.0
20260906030010 21 360 4.8 8.0 0.00 0.00 0.00 81 933.0
20260906025509 21 360 4.8 8.0 0.00 0.00 0.00 80 933.0
20260906025013 21 360 3.2 6.4 0.00 0.00 0.00 80 933.0
20260906024510 21 360 4.8 6.4 0.00 0.00 0.00 80 933.0
20260906024009 21 360 3.2 8.0 0.00 0.00 0.00 79 932.9
20260906023509 21 360 3.2 8.0 0.00 0.00 0.00 79 933.0
20260906023129 21 360 6.4 9.7 0.00 0.00 0.00 78 932.8
20260906022508 21 360 6.4 9.7 0.00 0.00 0.00 78 932.7
20260906022009 21 360 6.4 9.7 0.00 0.00 0.00 77 932.7
20260906021509 21 360 6.4 8.0 0.00 0.00 0.00 76 932.7
20260906021009 22 360 6.4 8.0 0.00 0.00 0.00 76 932.7
20260906020511 22 360 4.8 8.0 0.00 0.00 0.00 75 932.6
20260906020008 22 360 4.8 6.4 0.00 0.00 0.00 75 932.4
20260906015505 22 360 3.2 8.0 0.00 0.00 0.00 74 932.4
20260906015005 22 360 4.8 8.0 0.00 0.00 0.00 73 932.3
20260906014509 23 360 4.8 9.7 0.00 0.00 0.00 73 932.2
20260906014004 23 360 6.4 11.3 0.00 0.00 0.00 72 932.3
20260906013504 23 360 6.4 12.9 0.00 0.00 0.00 71 932.2
20260906013104 24 360 8.0 11.3 0.00 0.00 0.00 69 932.1
20260906012503 25 360 8.0 11.3 0.00 0.00 0.00 69 932.1
20260906012005 25 5 8.0 12.9 0.00 0.00 0.00 68 932.1
20260906011506 25 5 8.0 14.5 0.00 0.00 0.00 68 932.0
20260906011002 25 16 8.0 14.5 0.00 0.00 0.00 67 931.9
20260906010505 26 22 8.0 14.5 0.00 0.00 0.00 67 931.8
20260906010003 26 21 8.0 17.7 0.00 0.00 0.00 66 931.8
20260906005502 26 31 9.7 17.7 0.00 0.00 0.00 66 931.8
20260906005002 26 36 9.7 17.7 0.00 0.00 0.00 65 931.8
20260906004503 26 40 11.3 19.3 0.00 0.00 0.00 65 931.8
20260906004004 26 21 11.3 19.3 0.00 0.00 0.00 64 931.6
20260906003502 26 10 14.5 19.3 0.00 0.00 0.00 64 931.6
20260906003109 27 17 12.9 19.3 0.00 0.00 0.00 64 931.5
20260906002501 27 23 12.9 19.3 0.00 0.00 0.00 63 931.4
20260906002002 27 13 11.3 19.3 0.00 0.00 0.00 63 931.5
20260906001502 27 355 12.9 20.9 0.00 0.00 0.00 62 931.5
20260906001003 27 15 11.3 20.9 0.00 0.00 0.00 62 931.5
20260906000502 27 20 16.1 20.9 0.00 0.00 0.00 61 931.6
20260906000101 28 32 14.5 20.9 0.00 0.00 0.00 61 931.5
20260906000002 28 360 12.9 20.9 0.00 0.00 0.00 61 931.4
20260905235601 28 22 14.5 20.9 0.00 0.00 0.00 61 931.5
20260905235101 28 5 12.9 19.3 0.00 0.00 0.00 60 931.4
20260905234614 28 9 11.3 20.9 0.00 0.00 0.00 60 931.4
20260905234100 28 20 11.3 20.9 0.00 0.00 0.00 59 931.5
20260905233600 29 355 11.3 19.3 0.00 0.00 0.00 59 931.4
20260905233100 29 350 12.9 20.9 0.00 0.00 0.00 59 931.5
20260905232100 29 360 12.9 20.9 0.00 0.00 0.00 59 931.4
20260905231600 29 17 12.9 19.3 0.00 0.00 0.00 58 931.4
20260905231102 29 348 11.3 20.9 0.00 0.00 0.00 57 931.3
20260905230600 29 10 14.5 20.9 0.00 0.00 0.00 57 931.2
20260905230100 30 23 14.5 19.3 0.00 0.00 0.00 56 931.2
20260905225604 30 9 8.0 16.1 0.00 0.00 0.00 58 931.1
20260905225102 30 74 9.7 20.9 0.00 0.00 0.00 57 931.1
20260905224609 30 42 12.9 20.9 0.00 0.00 0.00 57 931.1
20260905224059 30 58 8.0 22.5 0.00 0.00 0.00 57 931.0
20260905223558 30 38 12.9 22.5 0.00 0.00 0.00 56 931.1
20260905223059 30 355 17.7 25.7 0.00 0.00 0.00 54 931.0
20260905222058 30 32 14.5 24.1 0.00 0.00 0.00 55 931.0
20260905221558 30 336 12.9 19.3 0.00 0.00 0.00 54 931.0
20260905221058 30 313 11.3 17.7 0.00 0.00 0.00 54 931.1
20260905220556 30 57 9.7 19.3 0.00 0.00 0.00 54 931.2
20260905220056 30 34 14.5 19.3 0.00 0.00 0.00 54 931.3
20260905215556 30 342 9.7 16.1 0.00 0.00 0.00 54 931.2
20260905215056 30 10 9.7 16.1 0.00 0.00 0.00 54 931.3